N7DTY Weather Reports


time (UTC)temp
F
wind
direction
speed
knots
gust
knots
rain 1hr
in
rain 24hr
in
rain mn
in
humidity
%
barometer
mb
20260502151512 55 24 0.0 3.5 0.00 0.00 0.00 89 1017.6
20260502123051 52 159 0.0 0.9 0.00 0.00 0.00 92 1016.3
20260502121552 52 159 0.0 0.9 0.00 0.00 0.00 91 1016.3
20260502114547 53 192 0.0 2.6 0.00 0.00 0.00 91 1016.1
20260502113045 52 148 0.0 2.6 0.00 0.00 0.00 90 1016.1
20260502111558 53 153 0.0 2.6 0.00 0.00 0.00 90 1015.9
20260502110043 53 153 0.0 0.9 0.00 0.00 0.00 88 1015.9
20260502104541 53 153 0.0 0.9 0.00 0.00 0.00 87 1015.8
20260502103057 54 153 0.0 0.0 0.00 0.00 0.00 86 1015.9
20260502101538 54 153 0.0 1.7 0.00 0.00 0.00 86 1015.8
20260502071529 54 144 0.0 1.7 0.00 0.00 0.00 86 1015.7
20260502070026 54 165 0.0 0.0 0.00 0.00 0.00 86 1015.6
20260502064526 54 165 0.0 0.0 0.00 0.00 0.00 85 1015.6
20260502063029 54 165 0.0 0.0 0.00 0.00 0.00 85 1015.5
20260502061524 54 165 0.0 0.0 0.00 0.00 0.00 83 1015.6
20260502060024 54 165 0.0 0.0 0.00 0.00 0.00 84 1015.4
20260502054532 54 165 0.0 0.0 0.00 0.00 0.00 85 1015.3
20260502053023 54 165 0.0 0.0 0.00 0.00 0.00 85 1015.5
20260502051522 54 183 0.0 0.0 0.00 0.00 0.00 86 1015.6
20260502050026 55 183 0.0 1.7 0.00 0.00 0.00 87 1015.7
20260502044522 55 183 0.0 1.7 0.00 0.00 0.00 87 1015.6
20260502043021 55 184 0.0 0.0 0.00 0.00 0.00 87 1015.2
20260502041521 55 184 0.0 0.0 0.00 0.00 0.00 85 1015.1
20260502040020 56 184 0.0 1.7 0.00 0.00 0.00 85 1015.0
20260502034519 56 184 0.0 0.9 0.00 0.00 0.00 84 1014.8
20260502033018 57 178 0.0 1.7 0.00 0.00 0.00 82 1014.8
20260502031521 58 178 0.0 0.9 0.00 0.00 0.00 80 1014.5
20260502030018 59 178 0.0 0.0 0.00 0.00 0.00 78 1014.5
20260502024517 59 178 0.0 1.7 0.00 0.00 0.00 76 1014.4
20260502023017 60 178 0.0 3.5 0.00 0.00 0.00 73 1014.4
20260502021517 61 185 0.9 3.5 0.00 0.00 0.00 71 1014.4
20260502020016 63 182 0.9 3.5 0.00 0.00 0.00 66 1014.3
20260502014525 63 200 0.0 1.7 0.00 0.00 0.00 62 1014.4
20260502013014 64 288 0.0 3.5 0.00 0.00 0.00 61 1014.4
20260502011513 64 316 0.0 3.5 0.00 0.00 0.00 59 1014.5
20260502010013 65 344 0.9 3.5 0.00 0.00 0.00 58 1014.5
20260502004527 66 341 0.9 4.3 0.00 0.00 0.00 58 1014.5
20260502003010 67 146 0.9 5.2 0.00 0.00 0.00 60 1014.6
20260502001510 67 350 0.9 3.5 0.00 0.00 0.00 60 1014.6
20260502000010 68 355 0.9 5.2 0.00 0.00 0.00 58 1014.7
20260501234508 69 30 0.9 5.2 0.00 0.00 0.00 56 1014.7
20260501233006 70 149 0.0 2.6 0.00 0.00 0.00 58 1014.8
20260501231505 70 72 0.0 5.2 0.00 0.00 0.00 57 1014.9
20260501230004 70 136 0.0 3.5 0.00 0.00 0.00 58 1015.0
20260501224504 71 350 0.0 2.6 0.00 0.00 0.00 58 1015.0
20260501223007 72 78 0.9 4.3 0.00 0.00 0.00 57 1015.1
20260501221501 72 13 1.7 5.2 0.00 0.00 0.00 58 1015.1
20260501220106 71 292 1.7 7.0 0.00 0.00 0.00 58 1015.4
20260501214557 71 321 1.7 4.3 0.00 0.00 0.00 55 1015.5
20260501213109 70 10 0.9 4.3 0.00 0.00 0.00 62 1015.8
20260501211551 69 355 0.9 5.2 0.00 0.00 0.00 62 1015.8
20260501210050 70 167 0.9 6.1 0.00 0.00 0.00 65 1016.1
20260501204551 69 15 0.9 4.3 0.00 0.00 0.00 64 1016.1
20260501203048 68 173 1.7 4.3 0.00 0.00 0.00 65 1016.2
20260501201545 67 163 0.9 6.1 0.00 0.00 0.00 69 1016.3
20260501200044 65 188 0.9 3.5 0.00 0.00 0.00 71 1016.3
20260501194547 64 163 0.9 4.3 0.00 0.00 0.00 73 1016.5
20260501193040 64 194 0.9 3.5 0.00 0.00 0.00 72 1016.5
20260501191539 62 180 1.7 4.3 0.00 0.00 0.00 75 1016.7
20260501190038 63 187 0.9 2.6 0.00 0.00 0.00 70 1016.7
20260501184536 62 217 0.9 3.5 0.00 0.00 0.00 71 1016.8
20260501183032 62 205 0.9 2.6 0.00 0.00 0.00 68 1017.0
20260501181531 60 236 1.7 3.5 0.00 0.00 0.00 69 1017.1
20260501180036 61 273 0.9 3.5 0.00 0.00 0.00 71 1017.2
20260501174527 60 207 0.9 2.6 0.00 0.00 0.00 71 1017.1
20260501173021 60 229 0.0 2.6 0.00 0.00 0.00 68 1017.2
20260501171516 59 205 0.0 1.7 0.00 0.00 0.00 72 1017.2
20260501170013 58 198 1.7 3.5 0.00 0.00 0.00 74 1017.2
20260501164520 57 150 1.7 3.5 0.00 0.00 0.00 75 1017.3
20260501163009 57 157 0.9 4.3 0.00 0.00 0.00 77 1017.4
20260501161502 56 150 0.0 3.5 0.00 0.00 0.00 80 1017.4
20260501160104 55 173 0.0 4.3 0.00 0.00 0.00 82 1017.2
20260501154618 54 184 0.0 2.6 0.00 0.00 0.00 85 1017.3